(218403) = 1998 QV80 = 2004 QA18

Discovered at Socorro on 2004-08-19 by LINEAR.

Orbit

Orbit type: Main Belt

Note: WebGL enabled browser required.

epoch2023-02-25.0
epoch JD2460000.5
perihelion date2021-01-28.87317
perihelion JD2459243.37317
argument of perihelion (°)118.01589
ascending node (°)264.36551
inclination (°)14.90029
eccentricity0.2150038
perihelion distance (AU)2.4473840
Tisserand w.r.t. Jupiter3.1
ΔV w.r.t. Earth (km/sec)10.8
semimajor axis (AU)3.1177016
mean anomaly (°)135.55660
mean daily motion (°/day)0.17904080
aphelion distance (AU)3.788
period (years)5.5
P-vector [x]0.89512815
P-vector [y]0.26172626
P-vector [z]0.36089467
Q-vector [x]-0.36505226
Q-vector [y]0.89498933
Q-vector [z]0.25638047
absolute magnitude15.01
phase slope0.15
uncertainty0
referenceMPO 745323
observations used792
oppositions12
arc length (days)9010
first opposition used1998
last opposition used2023
residual rms (arc-secs)0.71
perturbers coarse indicatorM-v
perturbers precise indicator003Ek
first observation date used1998-08-24.0
last observation date used2023-04-25.0
computer nameMPCLINUX
JD of orbit computation2455941.241242
perihelion JD uncertainty (days)3.6428E-04
argument of perihelion uncertainty (°)1.0503E-04
ascending node uncertainty (°)4.7135E-05
inclination uncertainty (°)1.2114E-05
eccentricity uncertainty 1.1826E-07
perihelion distance uncertainty (AU)3.8427E-07
Minimum Orbit Intersection Distances (in AU)
for orbit epoch: 2460000.5, reference: E2023-HJ2
Mercury2.12836
Venus1.75922
Earth1.49156
Mars1.05616
Jupiter1.8586
Saturn6.04082
Uranus14.8977
Neptune27.0746

Observations

812 total observations over interval: 1998 08 24.28780 – 2023 04 25.295801
These data are available for download (format description).

Date (UT) J2000 RA J2000 Dec Magn Location Ref
1998 08 24.28780 21 35 31.21 +09 01 49.0 18.9   704 – Lincoln Laboratory ETS, New Mexico MPS 2079
1998 08 24.30435 21 35 30.30 +09 01 46.7 18.9   704 – Lincoln Laboratory ETS, New Mexico MPS 2079
1998 08 24.32083 21 35 29.39 +09 01 46.8 19.1   704 – Lincoln Laboratory ETS, New Mexico MPS 2079
1998 08 24.35365 21 35 27.56 +09 01 40.5 19.4   704 – Lincoln Laboratory ETS, New Mexico MPS 2079
1998 08 27.21702 21 33 07.65 +08 56 11.1 18.9   704 – Lincoln Laboratory ETS, New Mexico MPS 2079
1998 08 27.23449 21 33 06.88 +08 56 10.4 18.8   704 – Lincoln Laboratory ETS, New Mexico MPS 2079
1998 08 27.25204 21 33 05.98 +08 56 06.1 18.8   704 – Lincoln Laboratory ETS, New Mexico MPS 2079
1998 08 27.26966 21 33 05.10 +08 56 06.2 18.8   704 – Lincoln Laboratory ETS, New Mexico MPS 2079
1998 08 27.28724 21 33 04.25 +08 56 02.7 18.8   704 – Lincoln Laboratory ETS, New Mexico MPS 2079
1998 09 18.10845 21 19 00.31 +07 31 25.9 18.7 R 699 – Lowell Observatory-LONEOS MPS 118419
1998 09 18.13328 21 18 59.64 +07 31 17.3   699 – Lowell Observatory-LONEOS MPS 118419
1998 09 18.15810 21 18 59.01 +07 31 09.6   699 – Lowell Observatory-LONEOS MPS 118419
1999 12 08.38393 07 19 09.68 +17 07 11.9 19.3   704 – Lincoln Laboratory ETS, New Mexico MPS 118419
1999 12 08.39647 07 19 09.13 +17 07 08.5 19.8   704 – Lincoln Laboratory ETS, New Mexico MPS 118419
1999 12 08.40903 07 19 08.54 +17 07 05.6 19.5   704 – Lincoln Laboratory ETS, New Mexico MPS 118419
1999 12 08.43410 07 19 07.54 +17 06 59.7 19.9   704 – Lincoln Laboratory ETS, New Mexico MPS 118419
2000 01 05.23167 06 54 24.78 +15 19 33.9 18.6   704 – Lincoln Laboratory ETS, New Mexico MPS 118419
2000 01 05.24629 06 54 23.95 +15 19 32.5 18.9   704 – Lincoln Laboratory ETS, New Mexico MPS 118419
2000 01 05.26093 06 54 23.04 +15 19 28.7 19.0   704 – Lincoln Laboratory ETS, New Mexico MPS 118419
2000 01 05.27557 06 54 22.14 +15 19 26.1 19.0   704 – Lincoln Laboratory ETS, New Mexico MPS 118419
2000 01 05.29015 06 54 21.29 +15 19 22.8 19.2   704 – Lincoln Laboratory ETS, New Mexico MPS 118419
2004 08 19.35229 02 53 53.38 +32 17 24.1 19.4   704 – Lincoln Laboratory ETS, New Mexico MPS 112268
2004 08 19.36208 02 53 53.95 +32 17 28.1 20.0   704 – Lincoln Laboratory ETS, New Mexico MPS 112268
2004 08 19.37224 02 53 54.59 +32 17 32.6 20.2   704 – Lincoln Laboratory ETS, New Mexico MPS 112268
2004 08 19.38281 02 53 55.22 +32 17 36.3 19.9   704 – Lincoln Laboratory ETS, New Mexico MPS 112268
2004 08 26.34771 03 00 41.56 +33 01 01.4 19.4   704 – Lincoln Laboratory ETS, New Mexico MPS 112268
2004 08 26.36833 03 00 42.68 +33 01 07.1 19.6   704 – Lincoln Laboratory ETS, New Mexico MPS 112268
2004 08 26.37852 03 00 43.14 +33 01 11.3 19.5   704 – Lincoln Laboratory ETS, New Mexico MPS 112268
2004 08 26.38876 03 00 43.76 +33 01 14.7 19.8   704 – Lincoln Laboratory ETS, New Mexico MPS 112268
2004 09 11.37083 03 12 00.89 +34 18 55.3 19.8   704 – Lincoln Laboratory ETS, New Mexico MPS 113010
2004 09 11.38227 03 12 01.16 +34 18 57.3 19.8   704 – Lincoln Laboratory ETS, New Mexico MPS 113010
2004 09 11.39374 03 12 01.49 +34 19 01.0 19.9   704 – Lincoln Laboratory ETS, New Mexico MPS 113010
2004 09 14.37115 03 13 22.24 +34 29 35.3 19.9   704 – Lincoln Laboratory ETS, New Mexico MPS 113010
2004 09 14.38246 03 13 22.42 +34 29 37.6 19.8   704 – Lincoln Laboratory ETS, New Mexico MPS 113010
2004 09 14.39376 03 13 22.56 +34 29 41.1 20.1   704 – Lincoln Laboratory ETS, New Mexico MPS 113010
2004 09 14.40506 03 13 22.88 +34 29 45.3 20.6   704 – Lincoln Laboratory ETS, New Mexico MPS 113010
2004 10 08.31789 03 14 10.02 +34 56 07.6 19.0   704 – Lincoln Laboratory ETS, New Mexico MPS 116646
2004 10 08.32877 03 14 09.67 +34 56 06.9 19.1   704 – Lincoln Laboratory ETS, New Mexico MPS 116646
2004 10 08.33964 03 14 09.44 +34 56 04.3 20.2   704 – Lincoln Laboratory ETS, New Mexico MPS 116646
2004 10 08.35051 03 14 09.09 +34 56 03.8 19.6   704 – Lincoln Laboratory ETS, New Mexico MPS 116646
2004 10 08.36139 03 14 08.83 +34 56 02.3 18.9   704 – Lincoln Laboratory ETS, New Mexico MPS 116646
2004 10 24.31185 03 05 14.69 +33 59 33.3 18.1   704 – Lincoln Laboratory ETS, New Mexico MPS 118419
2004 10 24.32373 03 05 14.14 +33 59 29.4 18.4   704 – Lincoln Laboratory ETS, New Mexico MPS 118419
2004 10 24.33562 03 05 13.59 +33 59 25.4 18.4   704 – Lincoln Laboratory ETS, New Mexico MPS 118419
2004 10 24.34750 03 05 13.02 +33 59 21.4 18.4   704 – Lincoln Laboratory ETS, New Mexico MPS 118419
2004 10 24.35938 03 05 12.50 +33 59 17.4 18.4   704 – Lincoln Laboratory ETS, New Mexico MPS 118419
2004 11 03.27388 02 57 18.15 +32 50 13.1 17.7 R 699 – Lowell Observatory-LONEOS MPS 118419
2004 11 03.29023 02 57 17.35 +32 50 04.9   699 – Lowell Observatory-LONEOS MPS 118419
2004 11 03.30658 02 57 16.41 +32 49 56.7   699 – Lowell Observatory-LONEOS MPS 118419
2004 11 03.32295 02 57 15.55 +32 49 48.8   699 – Lowell Observatory-LONEOS MPS 118419
2004 11 03.38777 02 57 12.14 +32 49 16.1 18.2 R 703 – Catalina Sky Survey MPS 118419
2004 11 03.39669 02 57 11.55 +32 49 11.1 17.9 R 703 – Catalina Sky Survey MPS 118419
2004 11 03.40545 02 57 11.06 +32 49 07.0 19.7 R 703 – Catalina Sky Survey MPS 118419
2004 11 03.41612 02 57 10.56 +32 49 03.9 16.6 R 703 – Catalina Sky Survey MPS 118419
2004 11 04.25397 02 56 28.68 +32 42 04.0 17.9   704 – Lincoln Laboratory ETS, New Mexico MPS 118419
2004 11 04.26592 02 56 28.07 +32 41 57.3 18.4   704 – Lincoln Laboratory ETS, New Mexico MPS 118419
2004 11 04.27786 02 56 27.41 +32 41 52.4 18.2   704 – Lincoln Laboratory ETS, New Mexico MPS 118419
2004 11 04.28981 02 56 26.78 +32 41 46.0 18.5   704 – Lincoln Laboratory ETS, New Mexico MPS 118419
2004 11 04.30176 02 56 26.15 +32 41 39.9 18.3   704 – Lincoln Laboratory ETS, New Mexico MPS 118419
2004 11 19.25581 02 44 19.63 +30 14 57.7   704 – Lincoln Laboratory ETS, New Mexico MPS 407443
2004 11 19.26958 02 44 19.04 +30 14 48.4   704 – Lincoln Laboratory ETS, New Mexico MPS 407443
2004 11 19.28358 02 44 18.37 +30 14 39.6   704 – Lincoln Laboratory ETS, New Mexico MPS 407443
2004 12 01.30214 02 37 04.59 +28 01 47.2 18.1   644 – Palomar Mountain/NEAT MPS 120502
2004 12 01.32372 02 37 03.97 +28 01 32.9 18.0   644 – Palomar Mountain/NEAT MPS 120502
2004 12 01.34428 02 37 03.36 +28 01 19.2 18.1   644 – Palomar Mountain/NEAT MPS 120502
2004 12 02.20361 02 36 40.57 +27 51 53.1 18.1   704 – Lincoln Laboratory ETS, New Mexico MPS 120502
2004 12 02.21788 02 36 40.17 +27 51 43.8 18.8   704 – Lincoln Laboratory ETS, New Mexico MPS 120502
2004 12 02.23382 02 36 39.70 +27 51 32.1 18.7   704 – Lincoln Laboratory ETS, New Mexico MPS 120502
2004 12 02.24749 02 36 39.32 +27 51 22.3 18.2   704 – Lincoln Laboratory ETS, New Mexico MPS 120502
2004 12 02.26090 02 36 38.92 +27 51 14.1 18.8   704 – Lincoln Laboratory ETS, New Mexico MPS 120502
2004 12 02.27942 02 36 38.40 +27 51 02.5 17.5 R 703 – Catalina Sky Survey MPS 120502
2004 12 02.28836 02 36 38.14 +27 50 56.4 17.9 R 703 – Catalina Sky Survey MPS 120502
2004 12 02.29729 02 36 37.94 +27 50 50.5 18.2 R 703 – Catalina Sky Survey MPS 120502
2004 12 02.30623 02 36 37.67 +27 50 44.9 18.8 R 703 – Catalina Sky Survey MPS 120502
2004 12 19.20777 02 33 21.23 +24 59 41.5 18.5 R 699 – Lowell Observatory-LONEOS MPS 122711
2004 12 19.22080 02 33 21.33 +24 59 34.6   699 – Lowell Observatory-LONEOS MPS 122711
2004 12 19.23381 02 33 21.30 +24 59 27.8   699 – Lowell Observatory-LONEOS MPS 122711
2004 12 19.24685 02 33 21.27 +24 59 20.7   699 – Lowell Observatory-LONEOS MPS 122711
2005 01 07.14475 02 39 17.06 +22 42 32.1 19.7   704 – Lincoln Laboratory ETS, New Mexico MPS 124102
2005 01 07.15790 02 39 17.45 +22 42 27.5 19.7   704 – Lincoln Laboratory ETS, New Mexico MPS 124102
2005 01 07.17097 02 39 17.91 +22 42 23.4 19.7   704 – Lincoln Laboratory ETS, New Mexico MPS 124102
2005 01 07.18401 02 39 18.29 +22 42 18.2 20.1   704 – Lincoln Laboratory ETS, New Mexico MPS 124102
2005 01 07.19752 02 39 18.71 +22 42 14.1 20.0   704 – Lincoln Laboratory ETS, New Mexico MPS 124102
2005 01 12.21007 02 42 24.49 +22 16 53.8 19.3   704 – Lincoln Laboratory ETS, New Mexico MPS 124102
2005 01 12.22482 02 42 25.05 +22 16 49.6 20.0   704 – Lincoln Laboratory ETS, New Mexico MPS 124102
